Galena, AK

8:56 AM AKDT on April 27, 2017 (GMT -0800)
Pitka

Weather History for PAGA - May, 2013

Change the Weather History Date:

Tuesday, May 14, 2013

  Actual Average Record
Temperature  
Mean Temperature 22 °F -  
Max Temperature 33 °F 50 °F 66 °F (1959)
Min Temperature 12 °F 34 °F 12 °F (2013)
Degree Days  
Heating Degree Days 42    
Moisture  
Dew Point 12 °F    
Average Humidity 63    
Maximum Humidity 84    
Minimum Humidity 43    
Precipitation  
Precipitation 0.00 in - - ()
Sea Level Pressure  
Sea Level Pressure 29.78 in    
Wind  
Wind Speed 4 mph (NNE)    
Max Wind Speed 8 mph    
Max Gust Speed -    
Visibility 10 miles    
Events      
Averages and records for this station are not official NWS values.
T = Trace of Precipitation, MM = Missing Value Source: NWS Daily Summary

Daily Weather History Graph

Daily Weather History Graph

Search for Another Location

Airport or City:

Trip Planner

Search our weather history database for the weather conditions in past years. The results will help you decide how hot, cold, wet, or windy it might be!

Date:

Astronomy

May. 14, 2013 Rise Set
Actual Time 5:07 AM AKDT 11:42 PM AKDT
Civil Twilight 3:13 AM AKDT 1:46 AM AKDT
Nautical Twilight Sun does not set Sun does not set
Astronomical Twilight Sun does not set Sun does not set
Moon 9:08 AM AKDT (5/14) 2:49 AM AKDT (5/14)
Length of Visible Light 22h 33m
Length of Day
18h 35m
Waxing Crescent, 20% of the Moon is Illuminated
May 14
Waxing Crescent
May 17
First Quarter
May 24
Full
May 31
Last Quarter
Jun 8
New

Hourly Weather History & Observations

Time (AKDT) Temp. Windchill Dew Point Humidity Pressure Visibility Wind Dir Wind Speed Gust Speed Precip Events Conditions
12:58 AM 19.0 °F 12.3 °F 12.0 °F 74% 29.81 in 10.0 mi NNW 4.6 mph - N/A   Clear
1:58 AM 18.0 °F 12.7 °F 10.9 °F 74% 29.81 in 10.0 mi NNW 3.5 mph - N/A   Clear
2:58 AM 16.0 °F 10.4 °F 10.0 °F 77% 29.82 in 10.0 mi NNW 3.5 mph - N/A   Clear
3:58 AM 15.1 °F 9.4 °F 10.0 °F 80% 29.83 in 10.0 mi Variable 3.5 mph - N/A   Clear
4:58 AM 14.0 °F - 9.0 °F 80% 29.82 in 10.0 mi Calm Calm - N/A   Clear
5:58 AM 12.9 °F - 9.0 °F 84% 29.82 in 10.0 mi Calm Calm - N/A   Clear
6:58 AM 14.0 °F - 9.0 °F 80% 29.82 in 10.0 mi Calm Calm - N/A   Clear
7:58 AM 16.0 °F 7.4 °F 9.0 °F 74% 29.83 in 10.0 mi Variable 5.8 mph - N/A   Clear
8:58 AM 17.1 °F 8.7 °F 9.0 °F 71% 29.83 in 10.0 mi Variable 5.8 mph - N/A   Clear
9:58 AM 19.0 °F 11.1 °F 10.0 °F 68% 29.83 in 10.0 mi Variable 5.8 mph - N/A   Clear
10:58 AM 21.9 °F - 10.9 °F 63% 29.83 in 10.0 mi Calm Calm - N/A   Clear
11:58 AM 23.0 °F - 12.0 °F 63% 29.81 in 10.0 mi Calm Calm - N/A   Clear
12:58 PM 25.0 °F 19.3 °F 12.9 °F 60% 29.81 in 10.0 mi ENE 4.6 mph - N/A   Clear
1:58 PM 28.0 °F 20.8 °F 14.0 °F 56% 29.79 in 10.0 mi WSW 6.9 mph - N/A   Clear
2:58 PM 28.9 °F 21.9 °F 16.0 °F 58% 29.78 in 10.0 mi Variable 6.9 mph - N/A   Clear
3:58 PM 30.9 °F 26.2 °F 16.0 °F 54% 29.76 in 10.0 mi West 4.6 mph - N/A   Clear
4:58 PM 30.9 °F 27.5 °F 16.0 °F 54% 29.75 in 10.0 mi SSE 3.5 mph - N/A   Clear
5:58 PM 33.1 °F - 15.1 °F 48% 29.74 in 10.0 mi Calm Calm - N/A   Clear
6:58 PM 33.1 °F 28.7 °F 15.1 °F 48% 29.73 in 10.0 mi East 4.6 mph - N/A   Partly Cloudy
7:58 PM 33.1 °F 28.7 °F 12.9 °F 43% 29.72 in 10.0 mi Variable 4.6 mph - N/A   Clear
8:58 PM 33.1 °F 28.7 °F 12.9 °F 43% 29.71 in 10.0 mi Variable 4.6 mph - N/A   Clear
9:58 PM 32.0 °F 24.8 °F 12.9 °F 45% 29.70 in 10.0 mi ENE 8.1 mph - N/A   Clear
10:58 PM 30.9 °F 27.5 °F 15.1 °F 52% 29.70 in 10.0 mi NE 3.5 mph - N/A   Clear
11:58 PM 30.0 °F 24.1 °F 15.1 °F 54% 29.70 in 10.0 mi ENE 5.8 mph - N/A   Clear